Location: LDNL
(36.4545°S, 141.6685°E)
Time: 12:42:45
(UTC+10:00)

Tiros 1 despin weight - Pass Details

Date: 10 August 2022
Orbit: 590 x 639 km, 48.2° (Epoch: 23 September)

Event Time Altitude Azimuth Distance (km) Brightness Sun altitude
Rises 05:43:50 0° 233° (SW) 2,963 - -20.2°
Reaches altitude 10° 05:46:30 10° 220° (SW) 2,054 - -19.6°
Exits shadow 05:48:17 19° 203° (SSW) 1,559 ? -19.3°
Maximum altitude 05:50:30 26° 163° (SSE) 1,270 ? -18.8°
Drops below altitude 10° 05:54:29 10° 105° (ESE) 2,044 ? -18.0°
Sets 05:57:08 0° 92° (E) 2,945 ? -17.5°
